Regional Weather Roundup
Issued by NWS Green Bay, WI

Home | Current Version | Previous Version | Text Only | Print | Product List | Glossary On
Versions: 1 2 3 4 5 6 7 8 9 10 11 12 13 14 15 16 17 18 19 20 21 22 23 24 25 26 27 28 29 30 31 32 33 34 35 36 37 38 39 40 41 42 43 44 45 46 47 48 49 50
000
ASUS43 KGRB 280711
RWRGRB

NORTH-CENTRAL AND NORTHEAST WISCONSIN REGIONAL WEATHER ROUNDUP
NATIONAL WEATHER SERVICE GREEN BAY WI
200 AM CDT TUE MAR 28 2017

WIZ005-009-010>012-018-019-280800-
NORTH CENTRAL WISCONSIN

CITY           SKY/WX    TMP DP  RH WIND       PRES   REMARKS
IRONWOOD       CLEAR     24  23  96 CALM      30.06R
MANITOWISH WTR CLEAR     25  25 100 CALM      30.04R
ARBOR VITAE    CLEAR     29  28  96 CALM      30.03R FOG
EAGLE RIVER    FOG       26  26 100 CALM      30.03R VSB 1
LAND O LAKES   CLEAR     26  26  99 CALM      30.05R
RHINELANDER    FOG       27  27 100 CALM      30.04R VSB 1
PHILLIPS       CLEAR     25  25  99 CALM      30.04R
ANTIGO         CLEAR     29  29 100 CALM      30.04R FOG
TOMAHAWK       CLEAR     24  23  96 CALM      30.05R
MERRILL        CLEAR     26  26 100 CALM      30.05S FOG
$$

WIZ013-073-280800-
NORTHEAST WISCONSIN

CITY           SKY/WX    TMP DP  RH WIND       PRES   REMARKS
IRON MOUNTAIN  MOCLDY    27  24  89 CALM      30.02S FOG
MARINETTE        N/A    N/A N/A N/A MISG        N/A
OCONTO         CLOUDY    29  29  99 CALM      30.04S VSB 1/2
$$

WIZ017-030-035>037-045-280800-
CENTRAL WISCONSIN

CITY           SKY/WX    TMP DP  RH WIND       PRES   REMARKS
MEDFORD        CLEAR     30  29  99 CALM      30.03S
WAUSAU         CLEAR     30  30 100 CALM      30.03R
MOSINEE        MOCLDY    36  36 100 N3        30.05R
MARSHFIELD     PTCLDY    33  31  92 N3        30.03R
WISC RAPIDS    CLOUDY    40  39  97 CALM      30.06R
STEVENS POINT  CLOUDY    37  37 100 N3        30.05R
WAUPACA        CLOUDY    41  40  97 N3        30.05R
SHAWANO        MOCLDY    39  37  91 CALM      30.05R
CLINTONVILLE   CLOUDY    37  37 100 N3        30.04R
WAUTOMA        CLOUDY    41  39  93 CALM      30.05R
$$

WIZ038-039-048-051-280800-
FOX VALLEY

CITY           SKY/WX    TMP DP  RH WIND       PRES   REMARKS
NWS GREEN BAY  CLOUDY    38  37  97 CALM      30.04R
APPLETON       CLOUDY    37  37 100 NW3       30.02R
OSHKOSH        CLOUDY    39  37  92 CALM      30.03R
FOND DU LAC    CLOUDY    40  35  83 CALM      30.03R
$$

WIZ022-050-052-280800-
EAST CENTRAL WISCONSIN

CITY           SKY/WX    TMP DP  RH WIND       PRES   REMARKS
EPHRAIM        FAIR      33  33 100 N6        30.02R
WASHINGTON ISL FAIR      31  31  96 N5        30.03S
STURGEON BAY   CLOUDY    36  35  96 NW3       30.01R
MANITOWOC      CLOUDY    38  36  92 CALM      30.04R
SHEBOYGAN      CLOUDY    38  35  89 N3        30.02S
$$

LMZ563-521-522-541>543-280800-
LAKESHORE

STATION/POSITION TIME  TEMP    WIND        PRES    VSBY  WAVE
                       AIR SEA DIR/SP/G                  HT/PER
                 (UTC) (F)     (DEG/KT/KT) (MB)    (MI)  (FT/S)
SHEBOYGAN LKSHOR 0700   38     340/  5/  6 1017.0S
KEWAUNEE LKSHORE 0648   38     320/  2/  5 1016.5R
NORTHPORT PIER   0640   34     300/  4/  5 1016.9R
SISTER BAY LKSHO 0606   34     350/  6/  6   N/A
CHAMBERS ISLAND  0640   33     320/  4/  6 1016.9R
MENOMINEE LKSHOR 0648   36     310/  5/  6 1016.3R
$$




USA.gov is the U.S. government's official web portal to all federal, state and local government web resources and services.